User: anonymous
Location: Clatteringshaws Loch
(55.0508°N, 4.2860°W)
Time: 19:51:21
(UTC+01:00)
Language:

Sapphire - Orbit

View from above orbital plane
View from above orbital plane
View from above satellite
View from above satellite

Ground track
Ground track

The orbit data is extracted from the following two-line orbital elements,

1 26932U 01043D   14245.30288229 -.00000017  00000-0  25299-4 0  6919
2 26932 067.0568 200.6260 0006681 293.8743 066.1658 14.30025184674679
Epoch (UTC): 02 September 2014 07:16:09
Eccentricity: 0.0006681
inclination: 67.0568°
perigee height: 787 km
apogee height: 796 km
right ascension of ascending node: 200.6260°
argument of perigee: 293.8743°
revolutions per day: 14.30025184
mean anomaly at epoch: 66.1658°
orbit number at epoch: 67467

The dashed part of the orbit path shows where the satellite is in the earth's shadow,  

DLR